Location: Bukit Lungun
(2.6833°N, 113.9667°E)
Time: 14:44:44
(UTC+00:00)

Landsat 5 - Pass Details

Date: 02 March 2021
Orbit: 529 x 652 km, 98.2° (Epoch: 13 April)

Event Time Altitude Azimuth Distance (km) Brightness Sun altitude
Rises 21:02:55 0° 162° (SSE) 2,730 7.2 -23.5°
Reaches altitude 10° 21:05:05 10° 159° (SSE) 1,818 6.3 -22.9°
Maximum altitude 21:08:56 61° 79° (ENE) 614 3.7 -22.0°
Drops below altitude 10° 21:12:42 10° 358° (N) 1,772 5.8 -21.0°
Enters shadow 21:12:58 - 357° (N) 1,881 5.9 -21.0°
